ABOUT US
vACC Philippines is a recognized member of the VATSIM network. We are dedicated to enchancing the online experience of both local and international virtual pilots. Mandated to provide professional and realistic air traffic operations.

vACC Philippines aims to provide the most realistic air traffic system simulation service that is close to the real thing as possible when flying on the VATSIM network.


METARS

RPLL 141400Z AUTO 01012KT 6000 FEW014/// BKN033/// OVC038/// 26/24 Q1011


RPVM 141400Z VRB02KT 9999 -TS FEW018CB BKN250 27/25 Q1011 RMK A2985 CB SE S SW


RPMD 141400Z 02006KT 9999 SCT016 BKN290 26/23 Q1011 RMK A2985



AIRFIELDS COVERED


Manila (RPLL)

Subic Bay (RPLB)

Mactan-Cebu (RPVM)

Clark (RPLC)

Laoag (RPLI)


Davao (RPMD)


Bacolod (RPVB)


Zamboanga (RPMZ)


General Santos (RPMR)


Iloilo (RPVI)


Kalibo (RPVK)


Legazpi (RPLP)


Puerto Princesa (RPVP)